Lid_Strength_Index
4 4 5 5 5 5 5 5 5 5 5 5 5 5 5 5 5 6 7 6 8 11 9 7 7 9 9 10 13 10 11 10 11 12 13 13 14 12 13 12 12 13 15 15 15 16 18 8 8 13 10 7 7 7
4 4 4 4 4 4 4 4 4 4 4 4 4 4 4 4 4 5 8 5 5 9 10 7 7 6 7 7 9 9 11 9 8 11 11 11 13 12 13 15 9 14 12 14 13 13 9 7 8 6 6 7 7 7
4 4 4 4 5 4 4 4 4 4 4 4 3 3 4 4 4 5 8 8 8 11 11 10 10 7 5 5 6 10 9 6 6 5 9 10 13 10 14 13 12 10 8 11 12 9 8 7 6 6 5 6 5 5
4 4 4 4 4 4 4 4 4 4 4 4 4 3 3 3 3 4 8 8 8 10 15 12 6 7 5 5 5 6 7 6 6 6 9 11 12 8 11 11 12 10 9 10 11 9 8 7 6 5 5 5 5 5
4 4 4 4 4 4 4 4 4 3 3 3 3 3 3 3 3 6 7 7 6 10 15 13 9 7 6 5 4 5 6 7 8 12 14 12 9 9 9 10 12 10 11 12 13 9 8 8 5 5 6 5 5 6
4 4 4 4 3 3 3 3 3 3 3 3 3 3 3 3 4 8 11 6 5 7 13 15 8 7 6 6 6 5 5 7 8 10 9 10 7 9 13 14 10 9 8 7 9 7 6 6 6 5 6 5 5 5
3 3 3 3 3 3 3 3 3 3 3 3 3 3 3 3 6 9 10 6 3 5 11 13 12 7 5 6 7 7 6 7 8 10 11 9 9 8 12 13 8 7 7 7 6 7 8 7 7 5 5 5 4 4
3 3 2 2 2 2 2 2 2 2 2 2 2 2 2 2 4 7 5 1 3 6 7 13 11 10 6 9 10 7 8 8 9 10 10 10 9 10 12 9 8 7 6 6 6 6 6 6 5 5 4 5 6 6
2 2 2 2 2 2 2 1 1 1 1 1 1 1 4 6 8 6 -0 1 3 7 13 11 12 14 6 8 7 8 7 10 6 12 10 8 10 12 10 9 8 7 7 6 5 5 5 5 5 5 5 5 6 6
2 2 1 1 1 1 1 0 0 0 0 0 4 7 13 6 0 1 5 9 9 9 9 10 10 12 9 11 12 13 10 10 13 11 8 10 11 8 8 7 7 7 6 5 7 7 6 7 7 7 6 6 6 5
1 1 1 0 0 0 0 0 0 0 1 4 9 10 5 -0 5 9 14 14 13 12 10 9 9 11 7 13 13 11 14 12 14 12 13 12 12 9 6 6 6 6 6 6 6 7 7 7 8 8 7 7 7 7
1 1 1 1 0 0 0 0 1 4 5 5 3 3 4 8 11 12 13 10 11 11 10 9 7 7 8 7 12 13 13 13 14 8 11 13 10 7 6 7 7 7 7 7 7 8 8 8 9 8 8 8 7 7
-0 -0 -0 -0 0 0 0 0 0 0 1 3 6 11 11 10 14 15 19 12 14 10 9 9 8 7 6 6 9 11 12 14 10 17 14 11 8 7 7 7 8 8 8 8 9 9 9 9 10 10 10 9 10 10
-0 -0 -0 -0 -0 -0 -1 -0 0 1 4 10 13 14 16 18 14 12 11 11 9 9 9 8 9 8 7 9 9 14 10 11 17 17 13 10 8 7 7 7 8 9 9 9 9 11 12 12 11 11 11 12 11 11
0 0 -0 0 0 0 0 0 0 3 7 11 11 16 14 11 10 9 8 8 8 7 8 9 9 8 11 12 10 10 13 14 13 14 10 8 8 7 8 7 8 8 9 9 9 12 11 10 11 12 12 11 11 11
1 1 2 0 -0 -0 -0 1 3 4 6 9 10 13 12 13 13 12 11 9 7 7 7 7 10 11 13 13 13 14 13 14 12 9 8 8 8 8 8 7 8 8 8 9 9 9 9 10 11 10 11 11 11 11
2 5 1 1 1 0 1 5 7 8 9 9 13 12 14 14 12 11 11 11 5 7 11 11 14 12 9 12 13 11 13 11 10 9 9 9 9 9 9 8 8 8 8 9 9 9 11 10 11 10 11 11 11 11
6 3 1 1 2 3 5 5 8 9 10 10 13 13 14 13 13 13 11 9 7 7 8 9 8 11 17 13 13 11 11 10 9 10 10 9 8 8 8 8 8 10 8 9 9 11 10 11 10 11 10 10 11 11
3 3 1 1 3 6 9 8 8 11 11 11 11 11 11 11 10 9 9 6 6 6 7 10 11 12 12 11 12 13 11 10 11 10 11 9 9 9 8 8 8 8 8 10 11 11 10 9 10 9 9 9 11 11
1 1 1 1 2 7 8 8 6 8 10 10 10 10 9 10 9 9 6 7 7 8 9 10 12 10 11 11 11 11 11 9 10 11 11 9 8 8 8 8 8 8 9 10 11 11 10 10 10 9 10 10 11 12
4 3 2 3 4 4 6 8 9 8 8 9 8 8 10 9 10 11 10 7 8 8 9 12 13 12 9 8 9 9 10 9 10 10 10 9 8 8 8 8 8 9 11 11 12 12 10 11 10 11 11 12 12 13
5 2 5 5 7 7 8 8 9 8 8 9 9 9 11 15 14 12 7 8 10 11 10 12 11 10 9 9 10 11 11 10 8 10 10 9 9 9 8 8 10 11 11 11 10 11 10 10 11 11 12 12 13 15
3 4 6 7 9 9 11 7 8 8 11 11 10 11 12 13 11 7 11 10 11 11 12 11 9 8 9 8 9 10 11 11 12 11 11 10 11 10 9 9 8 9 10 10 9 10 11 10 11 12 13 14 15 17
4 8 13 11 10 13 10 14 10 10 11 11 12 15 13 13 10 13 14 14 13 12 12 12 11 12 11 10 13 15 14 13 13 13 13 12 12 12 9 9 9 9 8 9 9 10 11 11 11 12 13 15 17 19
15 17 16 21 15 18 20 19 16 13 18 15 16 18 16 11 16 17 16 15 17 20 18 14 13 13 14 15 15 15 13 13 14 13 13 12 12 12 11 9 10 10 9 9 11 13 13 13 13 13 15 16 18 19
19 19 19 19 21 19 17 21 22 20 18 20 18 14 14 18 20 21 16 17 19 17 21 21 19 16 15 13 15 16 15 13 13 13 13 12 12 13 13 12 11 11 9 9 11 13 14 14 14 15 16 16 17 19
22 21 14 13 14 14 19 18 14 18 21 23 20 21 22 24 25 19 18 17 17 18 16 15 15 14 13 13 14 14 14 13 13 12 11 11 11 11 12 13 13 12 10 9 10 12 13 14 15 15 16 17 17 18
17 16 21 21 19 15 23 22 22 22 20 14 17 23 24 23 21 19 18 17 17 15 15 12 13 14 15 14 14 15 17 17 16 13 12 12 13 12 11 12 12 10 11 11 10 11 12 14 15 16 16 18 18 18
18 15 17 24 23 20 20 20 20 17 15 17 22 23 22 18 21 20 19 18 17 17 21 21 21 22 19 18 18 20 20 20 21 23 19 19 18 14 12 12 12 13 13 11 10 11 13 14 15 16 16 17 18 18
19 15 20 25 24 23 21 18 19 22 16 17 16 17 18 20 21 21 20 20 21 23 24 25 24 25 26 26 25 22 23 25 24 24 24 21 17 15 15 16 16 16 15 14 13 13 12 14 15 16 18 19 20 22
15 18 20 20 22 22 20 23 23 23 23 22 26 23 22 21 20 21 22 23 24 26 22 25 26 29 26 27 28 27 24 25 25 21 19 19 19 18 17 17 17 18 18 16 16 16 15 16 16 18 20 23 25 26
20 21 22 23 23 21 22 22 24 24 25 22 23 26 24 25 25 21 21 24 25 23 25 27 27 26 27 25 23 27 25 27 27 26 22 21 21 19 16 15 16 15 15 16 17 16 17 18 19 21 23 25 27 28
20 21 22 23 23 23 21 23 23 24 25 25 25 23 21 21 23 22 23 25 23 24 25 26 27 28 27 26 26 24 26 27 27 21 22 20 20 19 21 20 17 16 16 17 16 16 17 20 22 23 25 27 29 32